Location: ??????????
(54.8537°N, 38.8755°E)
Time: 22:32:05
(UTC+00:00)

Vanguard 3 - Pass Details

Date: 17 September 2024
Orbit: 507 x 3224 km, 33.3° (Epoch: 06 October)

Event Time Altitude Azimuth Distance (km) Brightness Sun altitude
Rises 01:20:04 0° 181° (S) 6,554 11.5 -14.8°
Reaches altitude 10° 01:27:43 10° 161° (SSE) 5,928 11.5 -13.8°
Maximum altitude 01:35:39 14° 135° (SE) 5,759 11.7 -12.7°
Drops below altitude 10° 01:43:45 10° 110° (ESE) 6,118 12.4 -11.7°
Sets 01:51:47 0° 91° (E) 6,910 13.4 -10.6°
